Location: Espelette
(43.3402°N, 1.4474°W)
Time: 06:37:17
(UTC+00:00)

Cosmos 2369 - Pass Details

Date: 05 August 2025
Orbit: 837 x 855 km, 71.0° (Epoch: 17 May)

Event Time Altitude Azimuth Distance (km) Brightness Sun altitude
Rises 20:16:48 0° 180° (S) 3,373 6.5 -9.4°
Reaches altitude 10° 20:19:22 10° 172° (S) 2,442 5.7 -9.8°
Maximum altitude 20:24:29 38° 106° (ESE) 1,259 4.2 -10.6°
Drops below altitude 10° 20:29:38 10° 40° (NE) 2,459 6.1 -11.3°
Sets 20:32:14 0° 32° (NNE) 3,399 6.9 -11.7°
